This is the latest recevied weather packets stored in our database for station/object DG0LHZ-10. If no packets are shown the sender has not sent any weather packets the latest 10 day(s).
| Time | Temp. | Humidity | Pressure | Rain* | Wind** | Luminosity | Snow |
|---|---|---|---|---|---|---|---|
| 1788146895 | 17.78° C | 50% | 1013 hPa | - | - | - | - |
| 1788145995 | 17.22° C | 50% | 1013.4 hPa | - | - | - | - |
| 1788145095 | 17.22° C | 49% | 1013.6 hPa | - | - | - | - |
| 1788144195 | 17.22° C | 48% | 1013.7 hPa | - | - | - | - |
| 1788143295 | 17.22° C | 48% | 1013.8 hPa | - | - | - | - |
| 1788142395 | 17.78° C | 48% | 1013.8 hPa | - | - | - | - |
| 1788141494 | 17.78° C | 47% | 1014.1 hPa | - | - | - | - |
| 1788140594 | 17.78° C | 47% | 1014 hPa | - | - | - | - |
| 1788139694 | 17.78° C | 47% | 1014.2 hPa | - | - | - | - |
| 1788138794 | 17.78° C | 46% | 1014.4 hPa | - | - | - | - |
| 1788137894 | 17.78° C | 46% | 1014.7 hPa | - | - | - | - |
| 1788136994 | 18.33° C | 45% | 1014.9 hPa | - | - | - | - |
| 1788136094 | 18.33° C | 45% | 1015 hPa | - | - | - | - |
| 1788135194 | 18.89° C | 45% | 1015.1 hPa | - | - | - | - |
| 1788134294 | 18.89° C | 44% | 1015.3 hPa | - | - | - | - |
| 1788133394 | 18.89° C | 44% | 1015.4 hPa | - | - | - | - |
| 1788132494 | 19.44° C | 44% | 1015.5 hPa | - | - | - | - |
| 1788131594 | 19.44° C | 43% | 1015.5 hPa | - | - | - | - |
| 1788130694 | 20° C | 43% | 1015.6 hPa | - | - | - | - |
| 1788129794 | 20° C | 43% | 1015.6 hPa | - | - | - | - |
| 1788128894 | 20.56° C | 43% | 1015.5 hPa | - | - | - | - |
| 1788127994 | 20.56° C | 42% | 1015.5 hPa | - | - | - | - |
| 1788127094 | 21.11° C | 42% | 1015.5 hPa | - | - | - | - |
| 1788126193 | 21.11° C | 42% | 1015.5 hPa | - | - | - | - |
| 1788125293 | 21.67° C | 42% | 1015.5 hPa | - | - | - | - |
* Rain since midnight (hover to see other rain measurements)
** Current wind speed in m/s (hover to see current wind gust speed)